CAPE
482 522 544 564 770 1041 1279 1329 1234 1320 1493 1736 1821 1885 1842 1776 1842 1663 1693 1291 925 737
615 705 831 874 909 1069 1207 1377 1349 1210 1412 1706 1691 1774 1997 2176 2175 1946 1864 1420 265 151
585 774 1050 1328 1124 1065 1238 1271 1523 1828 2039 2037 1904 2063 2257 2398 2192 1820 1790 1313 716 401
573 719 870 1208 1695 1845 1701 1595 1534 1540 1568 1899 2151 2166 2530 2506 2507 1884 1663 1356 1005 732
850 886 952 1031 1189 1605 1883 1866 2034 2147 2161 2164 2002 2160 2387 2189 2138 2080 1754 1339 738 454
1168 1301 1319 1295 1302 1340 1510 1702 1886 2120 1971 2044 2279 2356 2059 2068 2241 2111 1852 1491 982 632
1431 1574 1671 1765 1797 1750 1765 1907 1921 1982 2101 2152 2232 2104 1953 2181 2127 1601 1449 1297 1155 933
1733 1877 2022 2137 2183 2182 2203 2228 2201 2192 2182 2190 1711 2030 2166 1666 1256 780 509 262 29 0
1583 1837 2035 2140 2241 2176 2039 1972 1879 1711 1686 1773 2227 1482 1330 760 501 397 279 68 0 0
1709 1854 1873 1604 569 430 392 286 306 346 453 321 46 134 656 553 645 252 116 1 0 0
1777 1697 810 6 0 40 157 31 68 576 202 6 13 83 9 34 168 59 6 0 0 0
1551 472 137 47 22 8 0 0 0 39 2 0 11 0 2 0 1 0 0 0 0 0
1117 529 323 152 0 3 0 2 64 8 27 42 18 1 0 0 0 0 0 0 0 0
969 833 111 0 7 2 38 62 32 112 133 113 3 0 0 0 0 0 0 0 0 0
CIN
-501 -457 -436 -424 -371 -313 -272 -256 -249 -272 -256 -229 -209 -192 -171 -153 -146 -157 -141 -163 -181 -175
-521 -473 -429 -423 -388 -336 -313 -255 -259 -281 -246 -221 -213 -205 -172 -133 -116 -122 -131 -173 -352 -364
-562 -503 -418 -361 -376 -365 -310 -300 -232 -189 -177 -167 -181 -164 -133 -114 -100 -107 -121 -173 -248 -314
-600 -563 -475 -377 -301 -268 -257 -254 -243 -237 -213 -168 -142 -130 -89 -78 -70 -116 -128 -148 -172 -210
-547 -554 -491 -450 -398 -316 -237 -218 -182 -153 -135 -125 -127 -108 -82 -85 -77 -66 -84 -134 -229 -289
-525 -495 -447 -411 -394 -380 -309 -249 -188 -132 -126 -115 -98 -85 -98 -86 -49 -50 -62 -111 -185 -243
-505 -459 -404 -364 -327 -292 -254 -205 -180 -143 -113 -106 -98 -92 -90 -61 -50 -89 -95 -107 -105 -123
-489 -405 -342 -306 -258 -215 -185 -165 -150 -119 -123 -121 -146 -110 -72 -94 -128 -191 -228 -259 -329 0
-552 -441 -357 -299 -244 -216 -199 -176 -158 -169 -168 -150 -101 -148 -143 -205 -218 -255 -300 -334 0 0
-533 -426 -378 -353 -718 -725 -675 -756 -753 -514 -318 -345 -579 -394 -234 -246 -184 -229 -311 -28 0 0
-526 -460 -669 -855 0 -1041 -825 -1009 -973 -494 -518 -598 -259 -350 -518 -498 -273 -304 -173 0 0 0
-573 -894 -1037 -1070 -1012 -939 0 0 0 -774 -390 0 -380 0 -217 0 -89 0 0 0 0 0
-748 -886 -823 -915 0 -687 0 -51 -732 -778 -610 -389 -408 -27 0 0 0 0 0 0 0 0
-709 -654 -1045 0 -322 -926 -839 -728 -588 -398 -331 -289 -315 0 0 0 0 0 0 0 0 0
Wind_Speed
11 8 7 7 6 5 4 5 4 5 5 6 5 6 5 4 5 5 6 6 4 2
10 9 8 8 6 6 5 5 6 5 5 5 5 5 5 4 6 4 6 7 3 3
12 12 11 7 8 7 6 5 5 4 5 5 5 5 5 4 3 4 5 5 4 4
12 12 10 10 10 9 6 6 6 6 5 6 5 4 4 4 5 5 6 6 6 7
11 10 11 11 10 8 8 6 6 5 4 4 4 4 5 5 5 6 6 5 4 7
13 11 12 11 9 7 7 7 5 4 5 5 6 5 5 5 3 3 4 5 4 6
13 13 12 9 7 6 6 6 4 4 5 6 5 4 4 3 1 1 3 4 3 4
12 9 8 8 7 6 6 5 5 4 5 4 5 3 2 2 2 2 2 4 4 4
10 10 9 8 8 8 6 5 2 1 3 3 2 3 6 5 2 1 1 4 5 5
12 11 10 8 12 13 11 10 10 8 6 5 3 6 4 2 1 3 4 4 4 6
13 11 13 14 11 9 9 6 8 8 10 6 5 2 1 4 2 4 6 4 4 5
13 16 15 13 12 3 6 3 3 4 7 7 6 6 7 4 4 5 4 1 2 3
17 17 15 12 9 5 3 3 3 3 3 5 2 3 2 2 1 2 3 4 5 4
12 13 11 9 4 3 4 5 5 4 2 4 6 7 6 3 2 1 2 2 4 4
Wind_Direction
203 205 212 212 208 214 207 217 219 210 218 227 239 249 230 223 237 248 270 260 208 224
197 198 204 210 208 220 221 234 231 214 222 223 232 240 226 221 234 238 262 269 203 201
198 201 205 195 211 217 228 225 242 237 229 245 244 226 220 236 237 250 269 276 251 231
200 200 197 204 208 212 209 211 213 221 238 245 239 224 228 258 263 250 259 273 286 289
199 194 198 209 210 197 209 211 215 226 234 233 243 249 242 253 254 264 287 294 300 289
198 192 202 209 207 187 193 217 226 213 223 231 239 237 232 237 268 271 274 282 286 288
193 198 201 194 181 175 187 207 211 222 236 238 238 238 235 227 282 316 306 304 300 305
194 188 171 159 158 165 171 181 190 210 240 266 259 214 194 154 195 251 326 325 326 316
167 163 165 153 162 165 167 171 159 345 269 205 216 139 171 179 204 227 273 300 301 303
166 161 164 128 96 95 98 104 93 36 341 244 236 201 166 130 248 287 276 266 290 307
164 145 121 129 134 160 177 147 148 138 201 243 252 192 157 233 237 266 255 261 275 273
146 134 148 148 166 51 106 191 45 82 159 192 222 197 209 192 195 227 287 312 256 263
153 150 159 153 111 138 164 147 136 87 129 191 221 203 348 183 192 300 323 325 322 307
139 144 128 114 67 97 125 109 98 156 176 79 36 47 44 137 138 246 296 307 322 336